Погода Корнесты

Погода Корнесты : погода сейчас, прогноз погоды и архив. Всё, что Вы хотите узнать о погоде Корнесты!

Поиск расширенной информации на нашем сайте:

Полезная информация: Натуральный шампунь с имбирем дешево у китайцев!

Другие новости

Новости СМИ2

Главная страница сайта

Новости сайта

02.10.2013

Напоминаем, что на нашем новом сайте вы можете получить высокодетализированные прогнозы погоды по пунктам России, СНГ и мира (включающие важные для авиации метеовеличины, такие как направление и скорость ветра, видимость, явления погоды, количество и форма облачности, нижняя и верхняя граница облачности), а также ознакомиться с разнообразными материалами по авиационной метеорологии и подборкой полезных ссылок на эту тему.

Сайт Метеоцентр.Азия посвящён разработке технологий оптимизации авиаметеорологического обслуживания, включая проектирование и перспективное создание нескольких автоматизированных авиаметеорологических систем:
- система выпуска высокодетальных прогностических карт явлений погоды для нижнего воздушного пространства по России и ближнему зарубежью;
- система верификации прогнозов TAF (выпускаемых синоптиками официальных АМСГ РФ и ближнего зарубежья) и AUTOTAF (выпускаемых сайтом Метеоцентр.Азия) - выявление ошибок, онлайн-сопоставление с фактической погодой METAR, автоматическое внесение коррективов в прогнозы при резком отклонении фактической погоды от прогноза, подсчёт оправдываемости прогнозов по элементам и в целом;
- система обработки, анализа и отображения авиаметеорологической информации для применения провайдерами метеорологической информации.

Рекомендуем: Натуральная косметика Пулана по низким ценам в Украине!

Погода Корнесты - сегодня

Время (UTC), дата Ветер
(°,м/с) 
Видим.   Явления Облачность Т
(°С)
Тd
(°С)
f(%) Тe
(°С)
Pmin
(гПа)
dP
(гПа)
Po
(мм)
O2
(г/м3)
Тmin Tmax R s Состояние
почвы
06 26.03.17 340 (С) 2000 м  слаб. дождь  10/10 300 м 
[Frnb|Ns]
+3 +3 100 +4  1014.5  0.6  739  294  +2.4       
09 26.03.17 350 (С) 4000 м  дымка{дождь}  9/9 600 м 
[Sc]
+3.9 +1.8 86 +3  1016  1.5  740  294           
12 26.03.17 350 (С) 10 км  {дождь}  10/10 600 м кучево-дожд. 
[Cb calv]
+4.7 +1.4 79 +3  1016.9  741  293           
15 26.03.17 360 (С) 10 км    9/9 600 м кучево-дожд. 
[Cb calv]
+4.8 +1.5 79 +3  1018.4  1.5  742  294           
18 26.03.17 020 (С) 10 км  в посл. час ливневой дождь  10/10 600 м кучево-дожд. 
[Cb calv]
+3.6 +1.5 86 +3  1021.3  2.6  744  296    +5.2  0.1     
21 26.03.17 350 (С) 10 км    6/0 средняя 
[Ac As]
+2.5 +0.6 87 +2  1023.3  1.9  746  298           
00 27.03.17 260 (З) 10 км    ясно 
+0.4 +0 97 +1  1023.8  0.2  746  300           
03 27.03.17 300 (СЗ) 10 км    4/0 средняя, верхняя 
[Ac trans|Ci fib]
-0.3 -0.3 100 -1  1023.5  -0.3  746  301           
06 27.03.17 290 (З) 10 км    9/8 600 м средняя 
[Sc|Ac trans]
+1 +0.6 97 +2  1022.7  -0.7  745  299  -0.7         
09 27.03.17 300 (СЗ) 10 км    10/10 600 м 
[Sc]
+5.9 +1.2 72 +4  1021.2  -0.9  744  293           
12 27.03.17 310 (СЗ) 8{16}  10 км    8/3 600 м средняя, верхняя 
[Sc|Ac trans|Ci fib]
+11.2 +0.9 49 +9  1017.8  -2.8  742  287           
15 27.03.17 310 (СЗ) 6{18}  10 км    3/3 600 м 
[Sc]
+13.6 +1.3 43 +13  1016.4  -1.1  742  284           
18 27.03.17 310 (СЗ) 2{13}  10 км    3/0 средняя 
[Ac trans]
+10 +1.9 57 +10  1018.5  1.7  743  288    +13.8       
21 27.03.17 310 (СЗ) 10 км    ясно 
+8 +2.7 69 +7  1019.7  0.9  743  291           
00 28.03.17 320 (СЗ) 10 км    ясно 
+5.9 +3.1 82 +6  1020.3  0.4  744  293           
03 28.03.17 270 (З) 10 км    ясно 
+5.2 +2.9 85 +6  1019.8  -0.5  743  293           
06 28.03.17 270 (З) 10 км    ясно 
+8.6 +3.6 71 +10  1019.2  -0.3  743  290  +4.7         
09 28.03.17 310 (СЗ) 7{13}  10 км    4/0 средняя 
[Ac trans]
+15.8 +2.9 42 +15  1017.1  -1.3  742  282           
12 28.03.17 310 (СЗ) 6{16}  10 км    1/0 средняя 
[Ac trans]
+19.5 +2.8 33 +20  1014.9  -1.8  741  278           
15 28.03.17 310 (СЗ) 7{15}  10 км    ясно 
+19 +1.9 32 +19  1014.5  -0.5  740  279           
18 28.03.17 340 (С) 2{13}  10 км    ясно 
+14.9 +1.1 39 +16  1017.1  2.2  742  283    +20.3       
21 28.03.17 340 (С) 10 км    ясно 
+11.5 +1.7 51 +13  1019.4  1.9  744  287           
00 29.03.17 320 (СЗ) 10 км    ясно 
+11.2 +3 57 +12  1020.1  0.6  744  287           
03 29.03.17 тихо ()   10 км    ясно 
+8.5 +1.2 60 +9  1020.8  0.5  744  291           
06 29.03.17 270 (З) 4000 м  дымка  ясно 
+10.7 +2 55 +12  1021.2  0.6  745  288  +7.8         
Время (UTC), дата Ветер
(°,м/с) 
Видим.   Явления Облачность Т
(°С)
Тd
(°С)
f(%) Тe
(°С)
Pmin
(гПа)
dP
(гПа)
Po
(мм)
O2
(г/м3)
Тmin Tmax R s Состояние
почвы

Для получения пояснительной информации подведите курсор к названию столбца.

ПОГОДА Корнесты - архив

Всё, что Вы хотите узнать о погоде Корнесты - удобно и подробно!

Выберите нужную дату (начиная с 1 января 2015* года) и нажмите кнопку "Найти".
Будут отображены архивные сводки погоды по пункту Корнесты, начиная с указанной даты.


Отображать данные в формате CSV (для использования в таблицах Excel)


Внимание! Наш архив погоды предназначен исключительно для личного некоммерческого использования в познавательных целях. Если Вам необходимы официальные справки о состоянии погоды (для производственных, юридических, коммерческих и т.п. целей), обращайтесь в органы Росгидромета.

*Примечание: данная дата относится к архиву по метеостанциям СССР (Россия, СНГ, Балтия).
Архив по метеостанциям Зарубежной Европы и Азии (кроме Китая) хранится 10 дней, по другим регионам земного шара (Китай, Африка, Америка, Австралия, Океания) - 1 день.

Корнесты - район местоположения метеостанции


Название, широта, долгота, высота метеостанции:
Корнесты 47.3°ш. 28.1°д. 232 м над ур. моря [Молдавия]

Дополнительная информация

В oтличие oт бoльшинства пoгoдных сайтoв мы публикуем пoдрoбную метеoинфoрмацию в детальнoм прoфессиoнальнoм фoрмате.

Характеристики температуры и влажнoсти вoздуха измеряются на высoте 2 м в тени вдали oт зданий и деревьев.
Скoрoсть ветра измеряется на высoте 10 м (на урoвне рoста челoвека скoрoсть ветра ниже в 1.5-2 раза). Если метеoстанция нахoдится в гoрoде или в лесу, тo скoрoсть ветра занижена на 2-4 м/с пo сравнению с oткрытым местoм. Скoрoсть ветра над акватoриями крупных рек и oзёр, а также на вершинах хoлмoв на 2-5 м/с выше, чем в oбычных услoвиях.
Атмoсфернoе давление в разных тoчках местнoсти мoжет значительнo oтличаться oт давления на метеoстанции, в зависимoсти oт услoвий рельефа (при пoдъёме на 10 м давление пoнижается примернo на 1 мм рт.ст.).